Tracking 31011 objects as of 12-Jul-2025
HD Live streaming from Space Station
objects crossing your sky now

CZ-6A DEB

Track CZ-6A DEB now!
10-day predictions


NORAD ID: 54429
Int'l Code: 2022-151FD
Perigee: 830.2 km
Apogee: 1,075.3 km
Inclination: 99.0 °
Period: 104.0 minutes
Semi major axis: 7323 km
RCS: Unknown
Launch date: November 11, 2022
Source: People's Republic of China (PRC)
Launch site: Taiyaun Space Center, China (TSC)

Note: This is SATELLITE DEBRIS
Your satellite tracking list
Your tracking list is empty




NASA's NSSDC Master Catalog

Two Line Element Set (TLE):
1 54429U 22151FD  25192.34151053 -.00000045  00000-0 -10998-5 0  9999
2 54429  99.0071 170.7928 0167312 319.1082  39.7621 13.85175178134349
Source of the keplerian elements: AFSPC